Погода в Наифару

Мальдивы     5°26′35″N   73°21′58″E
темп.,
°C
ветер,
м/с
пор.,
м/с
влажн.,
%
обл.,
%
осадки,
мм/ч
давл.,
гПа
погр.,
м
13 апреля, вт
вт1323:00+29вюв117188 0.4 1013503
02:00+28зюз117498 0.1 1010570
05:00+28ю1174100 0.5 1011541
08:00+28ююз117486 0.5 1012427
11:00+28з1171100 0.5 1013697
14:00+29сз2270100 0.0 1010852
17:00+29ссз226740 0.1 1009920
20:00+29с226723 0.0 1011875
14 апреля, ср
ср1423:00+29св116711 0.0 1012675
02:00+28юз00688 0.0 1010695
05:00+28ююз1168100 0.0 1010720
08:00+28ююз106897 0.0 1012784
11:00+28юв006790 0.0 1012758
14:00+29вюв006540 0.0 1009839
17:00+29св00635 0.0 1009871
20:00+29с11635 0.0 1011810
15 апреля, чт
чт1523:00+29св00645 0.0 1012696
02:00+28ююз00655 0.0 1010677
05:00+28ююз116651 0.0 1010769
08:00+28юз11675 0.0 1013797
11:00+28ююз227069 0.1 1012680
14:00+29з226994 0.0 1009803
17:00+29зсз226770 0.0 1009936
20:00+29зсз336662 0.0 1011968
16 апреля, пт
пт1623:00+29зсз226718 0.0 1011727
02:00+28зсз116698 0.0 1009550
05:00+28с1166100 0.0 1009551
08:00+28ссв126896 0.0 1012652
11:00+28ссв1168100 0.0 1012611
14:00+29ссз1167100 0.0 1009740
17:00+29сз116616 0.0 1010939
20:00+29зсз116622 0.0 1011787
17 апреля, сб
сб1723:00+29зюз1167100 0.0 1012761
02:00+28ююз1168100 0.0 1010734
05:00+28ю1169100 0.0 1011762
08:00+28ююв1168100 0.0 1013653
11:00+29ююв2266100 0.0 1013672
14:00+29ююв1164100 0.0 1011759
17:00+29св1162100 0.0 1011789
20:00+29ююв1162100 0.0 1013730